This is the latest recevied weather packets stored in our database for station/object KY0TEQ-13. If no packets are shown the sender has not sent any weather packets the latest 10 day(s).
| Time | Temp. | Humidity | Pressure | Rain* | Wind** | Luminosity | Snow |
|---|---|---|---|---|---|---|---|
| 1788054524 | 21.11° C | 39% | 1308.6 hPa | 0 mm | - | 1 W/m² | - |
| 1788054221 | 21.11° C | 39% | 1308.6 hPa | 0 mm | - | 1 W/m² | - |
| 1788053916 | 21.11° C | 39% | 1308.6 hPa | 0 mm | - | 2 W/m² | - |
| 1788053611 | 21.11° C | 38% | 1308.5 hPa | 0 mm | - | 3 W/m² | - |
| 1788053306 | 21.67° C | 38% | 1308.4 hPa | 0 mm | - | 5 W/m² | - |
| 1788053002 | 21.67° C | 38% | 1308.4 hPa | 0 mm | - | 6 W/m² | - |
| 1788052698 | 21.67° C | 38% | 1308.5 hPa | 0 mm | - | 6 W/m² | - |
| 1788052393 | 22.22° C | 37% | 1308.6 hPa | 0 mm | - | 7 W/m² | - |
| 1788052088 | 22.22° C | 37% | 1308.9 hPa | 0 mm | - | 8 W/m² | - |
| 1788051787 | 22.22° C | 37% | 1309 hPa | 0 mm | - | 8 W/m² | - |
| 1788051483 | 22.78° C | 37% | 1309.1 hPa | 0 mm | - | 10 W/m² | - |
| 1788051181 | 22.78° C | 36% | 1309.3 hPa | 0 mm | - | 13 W/m² | - |
| 1788050880 | 23.33° C | 34% | 1309.1 hPa | 0 mm | - | 15 W/m² | - |
| 1788050576 | 23.33° C | 34% | 1309.5 hPa | 0 mm | - | 15 W/m² | - |
| 1788050270 | 23.89° C | 34% | 1309.4 hPa | 0 mm | - | 16 W/m² | - |
| 1788049965 | 24.44° C | 30% | 1309.3 hPa | 0 mm | - | 15 W/m² | - |
| 1788049662 | 24.44° C | 30% | 1309.5 hPa | 0 mm | - | 12 W/m² | - |
| 1788049359 | 24.44° C | 29% | 1309.3 hPa | 0 mm | - | 11 W/m² | - |
| 1788049059 | 25° C | 29% | 1309.4 hPa | 0 mm | - | 12 W/m² | - |
| 1788048754 | 25° C | 29% | 1309.1 hPa | 0 mm | - | 16 W/m² | - |
| 1788048452 | 25° C | 29% | 1309 hPa | 0 mm | - | 26 W/m² | - |
| 1788048152 | 25° C | 29% | 1309.1 hPa | 0 mm | - | 35 W/m² | - |
| 1788047849 | 25° C | 29% | 1308.9 hPa | 0 mm | - | 49 W/m² | - |
| 1788047544 | 25.56° C | 29% | 1308.9 hPa | 0 mm | - | 61 W/m² | - |
| 1788047244 | 25.56° C | 29% | 1308.8 hPa | 0 mm | - | 72 W/m² | - |
* Rain latest hour (hover to see other rain measurements)
** Current wind speed in m/s (hover to see current wind gust speed)